Hourly Data Report for September 18, 2017

All times are specified in Local Standard Time (LST). Add 1 hour to adjust for Daylight Saving Time where and when it is observed.

PENTICTON A
BRITISH COLUMBIA

49°27'45.000" N
119°36'08.000" W
344.40 m
1126146
71889
YYF

Download Data

Hourly Data (September 2017)
Hourly Data Report for September 18, 2017
Temp Definition
°C
Dew Point Temp Definition
°C
Rel Hum Definition
%
Wind Dir Definition
10's deg

Wind Spd Definition
km/h
Visibility Definition
km
Stn Press Definition
kPa
Hmdx Definition


Wind Chill Definition


Weather Definition


TIME
00:00 Legend Double Dagger 16.8 4.5 44 18 23 19.3 96.24     Rain Showers
01:00 Legend Double Dagger 13.7 6.1 60 36 22 19.3 96.33     Cloudy
02:00 Legend Double Dagger 13.0 4.1 54 36 22 19.3 96.39     LegendNANA
03:00 Legend Double Dagger 11.8 3.0 54 35 13 19.3 96.42     LegendNANA
04:00 Legend Double Dagger 11.2 2.1 53 35 9 19.3 96.40     Cloudy
05:00 Legend Double Dagger 8.2 2.4 66 28 3 24.1 96.45     LegendNANA
06:00 Legend Double Dagger 10.7 0.2 48 30 7 24.1 96.47     LegendNANA
07:00 Legend Double Dagger 10.0 3.0 62 32 5 24.1 96.50     Clear
08:00 Legend Double Dagger 13.8 -0.1 38 32 8 24.1 96.50     LegendNANA
09:00 Legend Double Dagger 15.4 -0.7 33 35 7 24.1 96.49     LegendNANA
10:00 Legend Double Dagger 16.3 -0.7 31 36 15 24.1 96.47     Mainly Clear
11:00 Legend Double Dagger 17.7 0.0 30 36 17 24.1 96.41     LegendNANA
12:00 Legend Double Dagger 17.7 -1.1 28 1 8 24.1 96.37     LegendNANA
13:00 Legend Double Dagger 17.1 -0.6 30 2 17 24.1 96.34     Mostly Cloudy
14:00 Legend Double Dagger 16.8 -0.6 30 33 7 24.1 96.31     LegendNANA
15:00 Legend Double Dagger 16.9 -1.7 28 24 7 24.1 96.30     LegendNANA
16:00 Legend Double Dagger 15.9 0.4 35 29 18 24.1 96.33     Mostly Cloudy
17:00 Legend Double Dagger 15.3 0.4 36 24 13 24.1 96.36     LegendNANA
18:00 Legend Double Dagger 13.9 0.8 41 32 5 24.1 96.37     LegendNANA
19:00 Legend Double Dagger 10.5 1.1 52 2 10 24.1 96.38     Mainly Clear
20:00 Legend Double Dagger 8.7 0.2 55 34 11 24.1 96.42     LegendNANA
21:00 Legend Double Dagger 6.5 -0.4 62 34 5 24.1 96.45     LegendNANA
22:00 Legend Double Dagger 6.6 -0.2 62 34 10 24.1 96.45     Mainly Clear
23:00 Legend Double Dagger 5.7 -0.4 65 36 13 24.1 96.44     LegendNANA

Notes on Data Quality.

Legend

  • E = Estimated
  • M = Missing
  • NA = Not Available
  • ‡ = Partner data that is not subject to review by the National Climate Archives
Date modified: